contact:dominique.lefevre@mio.osupytheas.fr, maurice.libes@osupytheas.fr, didier.mallarino@osupytheas.fr
Project:EMSO http://www.emso-fr.org/EMSO-France
Depth: 2436.0 m
Title:EMSO Ligure Ouest : Data MII capteur OXYGEN
DateTime,Latitude,Longitude,Optode-Type,Optode_Serial,Oxygen,Saturation_Oxygen,Temperature
DateTime,Latitude,Longitude,Optode-Type,Optode_Serial,µmol.l-1,%,degC
2019-07-21T00:02:43,42.805,6.029,4330,1995,192.564,58.893,13.291
2019-07-21T00:05:43,42.805,6.029,4330,1995,192.617,58.912,13.293
2019-07-21T00:08:43,42.805,6.029,4330,1995,192.569,58.898,13.294
2019-07-21T00:11:43,42.805,6.029,4330,1995,192.520,58.880,13.292
2019-07-21T00:14:43,42.805,6.029,4330,1995,192.378,58.838,13.292
2019-07-21T00:17:43,42.805,6.029,4330,1995,192.386,58.839,13.292
2019-07-21T00:20:43,42.805,6.029,4330,1995,192.440,58.855,13.291
2019-07-21T00:23:43,42.805,6.029,4330,1995,192.461,58.864,13.293
2019-07-21T00:26:43,42.805,6.029,4330,1995,192.615,58.909,13.292
2019-07-21T00:29:43,42.805,6.029,4330,1995,192.530,58.884,13.292
2019-07-21T00:32:43,42.805,6.029,4330,1995,192.556,58.894,13.294
2019-07-21T00:35:43,42.805,6.029,4330,1995,192.619,58.911,13.292
2019-07-21T00:38:43,42.805,6.029,4330,1995,192.659,58.922,13.291
2019-07-21T00:41:43,42.805,6.029,4330,1995,192.604,58.906,13.291
2019-07-21T00:44:43,42.805,6.029,4330,1995,192.539,58.887,13.292
2019-07-21T00:47:43,42.805,6.029,4330,1995,192.499,58.874,13.292
2019-07-21T00:50:43,42.805,6.029,4330,1995,192.484,58.873,13.295
2019-07-21T00:53:43,42.805,6.029,4330,1995,192.333,58.825,13.293
2019-07-21T00:56:43,42.805,6.029,4330,1995,192.427,58.851,13.291
2019-07-21T00:59:43,42.805,6.029,4330,1995,192.410,58.849,13.294
2019-07-21T01:02:43,42.805,6.029,4330,1995,192.226,58.793,13.294
2019-07-21T01:05:43,42.805,6.029,4330,1995,192.406,58.845,13.292
2019-07-21T01:08:43,42.805,6.029,4330,1995,192.506,58.877,13.293
2019-07-21T01:11:43,42.805,6.029,4330,1995,192.564,58.894,13.292
2019-07-21T01:14:43,42.805,6.029,4330,1995,192.506,58.876,13.292
2019-07-21T01:17:43,42.805,6.029,4330,1995,192.665,58.925,13.292
2019-07-21T01:20:43,42.805,6.029,4330,1995,192.590,58.906,13.295
2019-07-21T01:23:43,42.805,6.029,4330,1995,192.559,58.895,13.294
2019-07-21T01:26:43,42.805,6.029,4330,1995,192.500,58.876,13.293
2019-07-21T01:29:43,42.805,6.029,4330,1995,192.535,58.888,13.294
2019-07-21T01:32:43,42.805,6.029,4330,1995,192.518,58.881,13.293
2019-07-21T01:35:43,42.805,6.029,4330,1995,192.544,58.889,13.293
2019-07-21T01:38:43,42.805,6.029,4330,1995,192.597,58.907,13.294
2019-07-21T01:41:43,42.805,6.029,4330,1995,192.562,58.897,13.295
2019-07-21T01:44:43,42.805,6.029,4330,1995,192.585,58.907,13.297
2019-07-21T01:47:43,42.805,6.029,4330,1995,192.441,58.863,13.297
2019-07-21T01:50:43,42.805,6.029,4330,1995,192.345,58.832,13.296
2019-07-21T01:53:43,42.805,6.029,4330,1995,192.262,58.806,13.295
2019-07-21T02:02:43,42.805,6.029,4330,1995,192.287,58.805,13.289
2019-07-21T02:05:43,42.805,6.029,4330,1995,192.431,58.852,13.291
2019-07-21T02:08:43,42.805,6.029,4330,1995,192.276,58.807,13.293
2019-07-21T02:11:43,42.805,6.029,4330,1995,192.244,58.796,13.292
2019-07-21T02:14:43,42.805,6.029,4330,1995,192.136,58.764,13.293
2019-07-21T02:17:43,42.805,6.029,4330,1995,192.033,58.736,13.296
2019-07-21T02:20:43,42.805,6.029,4330,1995,191.994,58.724,13.296
2019-07-21T02:23:43,42.805,6.029,4330,1995,192.031,58.735,13.295
2019-07-21T02:26:43,42.805,6.029,4330,1995,192.163,58.772,13.292
2019-07-21T02:29:43,42.805,6.029,4330,1995,192.305,58.818,13.294
2019-07-21T02:32:43,42.805,6.029,4330,1995,192.216,58.791,13.295
2019-07-21T02:35:43,42.805,6.029,4330,1995,192.239,58.795,13.293
2019-07-21T02:38:43,42.805,6.029,4330,1995,192.233,58.796,13.294
2019-07-21T02:41:43,42.805,6.029,4330,1995,192.370,58.838,13.295
2019-07-21T02:44:43,42.805,6.029,4330,1995,192.184,58.782,13.295
2019-07-21T02:47:43,42.805,6.029,4330,1995,192.017,58.731,13.295
2019-07-21T02:50:43,42.805,6.029,4330,1995,192.079,58.750,13.295
2019-07-21T02:53:43,42.805,6.029,4330,1995,192.102,58.756,13.295
2019-07-21T02:56:43,42.805,6.029,4330,1995,192.207,58.787,13.294
2019-07-21T02:59:43,42.805,6.029,4330,1995,192.101,58.755,13.294
2019-07-21T03:02:43,42.805,6.029,4330,1995,192.099,58.755,13.294
2019-07-21T03:05:43,42.805,6.029,4330,1995,192.200,58.785,13.294
2019-07-21T03:08:43,42.805,6.029,4330,1995,192.211,58.787,13.293
2019-07-21T03:11:43,42.805,6.029,4330,1995,192.123,58.761,13.294
2019-07-21T03:14:43,42.805,6.029,4330,1995,192.037,58.735,13.294
2019-07-21T03:17:43,42.805,6.029,4330,1995,192.029,58.732,13.293
2019-07-21T03:20:43,42.805,6.029,4330,1995,192.019,58.727,13.292
2019-07-21T03:23:43,42.805,6.029,4330,1995,191.957,58.708,13.292
2019-07-21T03:26:43,42.805,6.029,4330,1995,191.999,58.722,13.293
2019-07-21T03:29:43,42.805,6.029,4330,1995,192.132,58.762,13.292
2019-07-21T03:32:43,42.805,6.029,4330,1995,192.093,58.752,13.293
2019-07-21T03:35:43,42.805,6.029,4330,1995,192.062,58.740,13.292
2019-07-21T03:38:43,42.805,6.029,4330,1995,192.069,58.741,13.291
2019-07-21T03:41:43,42.805,6.029,4330,1995,192.083,58.746,13.291
2019-07-21T03:44:43,42.805,6.029,4330,1995,191.951,58.710,13.294
2019-07-21T03:47:43,42.805,6.029,4330,1995,191.990,58.718,13.292
2019-07-21T03:50:43,42.805,6.029,4330,1995,191.984,58.716,13.291
2019-07-21T03:53:43,42.805,6.029,4330,1995,191.975,58.716,13.294
2019-07-21T03:56:43,42.805,6.029,4330,1995,191.989,58.720,13.293
2019-07-21T03:59:43,42.805,6.029,4330,1995,191.810,58.664,13.292
2019-07-21T04:02:43,42.805,6.029,4330,1995,191.910,58.694,13.292
2019-07-21T04:05:43,42.805,6.029,4330,1995,191.856,58.680,13.294
2019-07-21T04:08:43,42.805,6.029,4330,1995,191.896,58.693,13.294
2019-07-21T04:11:43,42.805,6.029,4330,1995,191.945,58.705,13.292
2019-07-21T04:14:43,42.805,6.029,4330,1995,191.950,58.707,13.293
2019-07-21T04:17:43,42.805,6.029,4330,1995,191.866,58.681,13.292
2019-07-21T04:20:43,42.805,6.029,4330,1995,191.908,58.694,13.293
2019-07-21T04:23:43,42.805,6.029,4330,1995,191.875,58.684,13.293
2019-07-21T04:26:43,42.805,6.029,4330,1995,191.950,58.709,13.294
2019-07-21T04:29:43,42.805,6.029,4330,1995,191.828,58.671,13.293
2019-07-21T04:35:43,42.805,6.029,4330,1995,191.819,58.663,13.290
2019-07-21T04:38:43,42.805,6.029,4330,1995,191.747,58.642,13.290
2019-07-21T04:41:43,42.805,6.029,4330,1995,191.717,58.636,13.293
2019-07-21T04:44:43,42.805,6.029,4330,1995,191.682,58.627,13.294
2019-07-21T04:47:43,42.805,6.029,4330,1995,191.646,58.616,13.294
2019-07-21T04:50:43,42.805,6.029,4330,1995,191.737,58.641,13.292
2019-07-21T04:53:43,42.805,6.029,4330,1995,191.749,58.645,13.292
2019-07-21T04:56:43,42.805,6.029,4330,1995,191.798,58.660,13.292
2019-07-21T04:59:43,42.805,6.029,4330,1995,191.883,58.686,13.292
2019-07-21T05:02:43,42.805,6.029,4330,1995,191.906,58.696,13.294
2019-07-21T05:05:43,42.805,6.029,4330,1995,191.868,58.683,13.294
2019-07-21T05:08:43,42.805,6.029,4330,1995,191.814,58.665,13.292
2019-07-21T05:11:43,42.805,6.029,4330,1995,191.827,58.672,13.294
2019-07-21T05:14:43,42.805,6.029,4330,1995,191.827,58.674,13.296
2019-07-21T05:17:43,42.805,6.029,4330,1995,191.775,58.657,13.295
2019-07-21T05:20:43,42.805,6.029,4330,1995,191.786,58.658,13.293
2019-07-21T05:23:43,42.805,6.029,4330,1995,191.682,58.627,13.294
2019-07-21T05:26:43,42.805,6.029,4330,1995,191.718,58.636,13.293
2019-07-21T05:29:43,42.805,6.029,4330,1995,191.679,58.629,13.296
2019-07-21T05:32:43,42.805,6.029,4330,1995,191.662,58.624,13.297
2019-07-21T05:35:43,42.805,6.029,4330,1995,191.670,58.629,13.299
2019-07-21T05:38:43,42.805,6.029,4330,1995,191.579,58.599,13.297
2019-07-21T05:41:43,42.805,6.029,4330,1995,191.584,58.598,13.295
2019-07-21T05:44:43,42.805,6.029,4330,1995,191.676,58.627,13.295
2019-07-21T05:47:43,42.805,6.029,4330,1995,191.680,58.627,13.295
2019-07-21T05:50:43,42.805,6.029,4330,1995,191.763,58.653,13.295
2019-07-21T05:53:43,42.805,6.029,4330,1995,191.570,58.594,13.295
2019-07-21T05:56:43,42.805,6.029,4330,1995,191.424,58.550,13.296
2019-07-21T05:59:43,42.805,6.029,4330,1995,191.376,58.539,13.299
2019-07-21T06:02:43,42.805,6.029,4330,1995,191.266,58.502,13.296
2019-07-21T06:05:43,42.805,6.029,4330,1995,191.325,58.520,13.296
2019-07-21T06:08:43,42.805,6.029,4330,1995,191.478,58.566,13.295
2019-07-21T06:11:43,42.805,6.029,4330,1995,191.649,58.620,13.297
2019-07-21T06:14:43,42.805,6.029,4330,1995,191.511,58.578,13.297
2019-07-21T06:17:43,42.805,6.029,4330,1995,191.560,58.594,13.298
2019-07-21T06:20:43,42.805,6.029,4330,1995,191.639,58.617,13.296
2019-07-21T06:23:43,42.805,6.029,4330,1995,191.722,58.644,13.298
2019-07-21T06:26:43,42.805,6.029,4330,1995,191.625,58.610,13.295
2019-07-21T06:29:43,42.805,6.029,4330,1995,191.709,58.637,13.296
2019-07-21T06:32:43,42.805,6.029,4330,1995,191.721,58.639,13.294
2019-07-21T06:35:43,42.805,6.029,4330,1995,191.668,58.624,13.295
2019-07-21T06:38:43,42.805,6.029,4330,1995,191.610,58.606,13.295
2019-07-21T06:41:43,42.805,6.029,4330,1995,191.590,58.601,13.296
2019-07-21T06:44:43,42.805,6.029,4330,1995,191.720,58.644,13.298
2019-07-21T06:47:43,42.805,6.029,4330,1995,191.590,58.598,13.293
2019-07-21T06:50:43,42.805,6.029,4330,1995,191.620,58.608,13.294
2019-07-21T06:53:43,42.805,6.029,4330,1995,191.592,58.601,13.295
2019-07-21T06:56:43,42.805,6.029,4330,1995,191.557,58.591,13.296
2019-07-21T06:59:43,42.805,6.029,4330,1995,191.513,58.575,13.294
2019-07-21T07:02:43,42.805,6.029,4330,1995,191.658,58.623,13.297
2019-07-21T07:05:43,42.805,6.029,4330,1995,191.586,58.599,13.295
2019-07-21T07:11:43,42.805,6.029,4330,1995,191.686,58.624,13.291
2019-07-21T07:14:43,42.805,6.029,4330,1995,191.853,58.678,13.294
2019-07-21T07:17:43,42.805,6.029,4330,1995,191.721,58.642,13.296
2019-07-21T07:20:43,42.805,6.029,4330,1995,191.582,58.599,13.296
2019-07-21T07:23:43,42.805,6.029,4330,1995,191.537,58.587,13.298
2019-07-21T07:26:43,42.805,6.029,4330,1995,191.522,58.581,13.297
2019-07-21T07:29:43,42.805,6.029,4330,1995,191.513,58.580,13.298
2019-07-21T07:32:43,42.805,6.029,4330,1995,191.396,58.539,13.294
2019-07-21T07:35:43,42.805,6.029,4330,1995,191.421,58.548,13.294
2019-07-21T07:38:43,42.805,6.029,4330,1995,191.543,58.587,13.296
2019-07-21T07:41:43,42.805,6.029,4330,1995,191.497,58.572,13.296
2019-07-21T07:44:43,42.805,6.029,4330,1995,191.587,58.599,13.295
2019-07-21T07:47:43,42.805,6.029,4330,1995,191.611,58.606,13.294
2019-07-21T07:50:43,42.805,6.029,4330,1995,191.360,58.533,13.298
2019-07-21T07:53:43,42.805,6.029,4330,1995,191.393,58.543,13.297
2019-07-21T07:56:43,42.805,6.029,4330,1995,191.478,58.565,13.295
2019-07-21T07:59:43,42.805,6.029,4330,1995,191.408,58.545,13.296
2019-07-21T08:02:43,42.805,6.029,4330,1995,191.070,58.441,13.295
2019-07-21T08:05:43,42.805,6.029,4330,1995,190.980,58.413,13.295
2019-07-21T08:08:43,42.805,6.029,4330,1995,191.146,58.464,13.294
2019-07-21T08:11:43,42.805,6.029,4330,1995,191.300,58.512,13.295
2019-07-21T08:14:43,42.805,6.029,4330,1995,191.253,58.498,13.296
2019-07-21T08:17:43,42.805,6.029,4330,1995,191.228,58.489,13.295
2019-07-21T08:20:43,42.805,6.029,4330,1995,191.370,58.532,13.295
2019-07-21T08:23:43,42.805,6.029,4330,1995,191.540,58.583,13.294
2019-07-21T08:26:43,42.805,6.029,4330,1995,191.605,58.603,13.294
2019-07-21T08:29:43,42.805,6.029,4330,1995,191.584,58.599,13.295
2019-07-21T08:32:43,42.805,6.029,4330,1995,191.406,58.545,13.296
2019-07-21T08:35:43,42.805,6.029,4330,1995,191.611,58.603,13.293
2019-07-21T08:38:43,42.805,6.029,4330,1995,191.713,58.639,13.296
2019-07-21T08:41:43,42.805,6.029,4330,1995,191.756,58.653,13.297
2019-07-21T08:44:43,42.805,6.029,4330,1995,191.771,58.658,13.297
2019-07-21T08:47:43,42.805,6.029,4330,1995,191.890,58.691,13.295
2019-07-21T08:50:43,42.805,6.029,4330,1995,192.123,58.760,13.293
2019-07-21T08:53:43,42.805,6.029,4330,1995,192.132,58.766,13.295
2019-07-21T08:56:43,42.805,6.029,4330,1995,191.968,58.716,13.295
2019-07-21T08:59:43,42.805,6.029,4330,1995,191.663,58.622,13.295
2019-07-21T09:02:43,42.805,6.029,4330,1995,191.822,58.672,13.296
2019-07-21T09:05:43,42.805,6.029,4330,1995,191.914,58.701,13.297
2019-07-21T09:08:43,42.805,6.029,4330,1995,192.048,58.741,13.296
2019-07-21T09:11:43,42.805,6.029,4330,1995,191.961,58.716,13.297
2019-07-21T09:14:43,42.805,6.029,4330,1995,191.961,58.718,13.299
2019-07-21T09:17:43,42.805,6.029,4330,1995,191.928,58.708,13.299
2019-07-21T09:20:43,42.805,6.029,4330,1995,191.870,58.686,13.295
2019-07-21T09:23:43,42.805,6.029,4330,1995,191.815,58.673,13.298
2019-07-21T09:26:43,42.805,6.029,4330,1995,191.952,58.712,13.296
2019-07-21T09:29:43,42.805,6.029,4330,1995,191.948,58.712,13.297
2019-07-21T09:32:43,42.805,6.029,4330,1995,191.881,58.690,13.296
2019-07-21T09:35:43,42.805,6.029,4330,1995,192.008,58.730,13.297
2019-07-21T09:38:43,42.805,6.029,4330,1995,191.934,58.710,13.299
2019-07-21T09:47:43,42.805,6.029,4330,1995,191.813,58.663,13.291
2019-07-21T09:50:43,42.805,6.029,4330,1995,191.629,58.611,13.294
2019-07-21T09:53:43,42.805,6.029,4330,1995,191.434,58.557,13.298
2019-07-21T09:56:43,42.805,6.029,4330,1995,191.524,58.583,13.297
2019-07-21T09:59:43,42.805,6.029,4330,1995,191.740,58.652,13.300
2019-07-21T10:02:43,42.805,6.029,4330,1995,191.790,58.660,13.294
2019-07-21T10:05:43,42.805,6.029,4330,1995,191.973,58.720,13.297
2019-07-21T10:08:43,42.805,6.029,4330,1995,191.853,58.683,13.297
2019-07-21T10:11:43,42.805,6.029,4330,1995,191.851,58.685,13.299
2019-07-21T10:14:43,42.805,6.029,4330,1995,191.875,58.690,13.297
2019-07-21T10:17:43,42.805,6.029,4330,1995,191.816,58.674,13.298
2019-07-21T10:20:43,42.805,6.029,4330,1995,191.857,58.685,13.298
2019-07-21T10:23:43,42.805,6.029,4330,1995,191.797,58.666,13.297
2019-07-21T10:26:43,42.805,6.029,4330,1995,191.911,58.698,13.295
2019-07-21T10:29:43,42.805,6.029,4330,1995,192.092,58.752,13.294
2019-07-21T10:32:43,42.805,6.029,4330,1995,192.094,58.755,13.296
2019-07-21T10:35:43,42.805,6.029,4330,1995,192.184,58.782,13.295
2019-07-21T10:38:43,42.805,6.029,4330,1995,192.201,58.788,13.295
2019-07-21T10:41:43,42.805,6.029,4330,1995,192.122,58.761,13.294
2019-07-21T10:44:43,42.805,6.029,4330,1995,192.029,58.734,13.295
2019-07-21T10:47:43,42.805,6.029,4330,1995,191.880,58.689,13.295
2019-07-21T10:50:43,42.805,6.029,4330,1995,191.791,58.663,13.296
2019-07-21T10:53:43,42.805,6.029,4330,1995,191.725,58.641,13.294
2019-07-21T10:56:43,42.805,6.029,4330,1995,191.633,58.615,13.296
2019-07-21T10:59:43,42.805,6.029,4330,1995,191.519,58.583,13.299
2019-07-21T11:02:43,42.805,6.029,4330,1995,191.444,58.559,13.298
2019-07-21T11:05:43,42.805,6.029,4330,1995,191.303,58.511,13.294
2019-07-21T11:08:43,42.805,6.029,4330,1995,191.382,58.533,13.292
2019-07-21T11:11:43,42.805,6.029,4330,1995,191.482,58.565,13.294
2019-07-21T11:14:43,42.805,6.029,4330,1995,191.542,58.581,13.292
2019-07-21T11:17:43,42.805,6.029,4330,1995,191.721,58.636,13.292
2019-07-21T11:20:43,42.805,6.029,4330,1995,191.764,58.651,13.293
2019-07-21T11:23:43,42.805,6.029,4330,1995,191.808,58.664,13.292
2019-07-21T11:26:43,42.805,6.029,4330,1995,191.722,58.636,13.292
2019-07-21T11:29:43,42.805,6.029,4330,1995,191.763,58.648,13.292
2019-07-21T11:32:43,42.805,6.029,4330,1995,191.834,58.670,13.291
2019-07-21T11:35:43,42.805,6.029,4330,1995,191.788,58.656,13.291
2019-07-21T11:38:43,42.805,6.029,4330,1995,191.747,58.644,13.292
2019-07-21T11:41:43,42.805,6.029,4330,1995,191.799,58.660,13.292
2019-07-21T11:44:43,42.805,6.029,4330,1995,191.751,58.645,13.292
2019-07-21T11:47:43,42.805,6.029,4330,1995,191.814,58.665,13.292
2019-07-21T11:50:43,42.805,6.029,4330,1995,191.719,58.635,13.292
2019-07-21T11:53:43,42.805,6.029,4330,1995,191.785,58.656,13.292
2019-07-21T11:56:43,42.805,6.029,4330,1995,191.851,58.675,13.291
2019-07-21T11:59:43,42.805,6.029,4330,1995,191.910,58.694,13.292
2019-07-21T12:02:43,42.805,6.029,4330,1995,191.865,58.680,13.292
2019-07-21T12:05:43,42.805,6.029,4330,1995,191.792,58.660,13.293
2019-07-21T12:08:43,42.805,6.029,4330,1995,191.830,58.668,13.291
2019-07-21T12:11:43,42.805,6.029,4330,1995,191.875,58.683,13.291
2019-07-21T12:14:43,42.805,6.029,4330,1995,191.964,58.709,13.291
2019-07-21T12:20:43,42.805,6.029,4330,1995,192.036,58.731,13.291
2019-07-21T12:23:43,42.805,6.029,4330,1995,191.841,58.669,13.289
2019-07-21T12:26:43,42.805,6.029,4330,1995,191.858,58.679,13.293
2019-07-21T12:29:43,42.805,6.029,4330,1995,191.778,58.653,13.292
2019-07-21T12:32:43,42.805,6.029,4330,1995,191.771,58.651,13.292
2019-07-21T12:35:43,42.805,6.029,4330,1995,191.820,58.666,13.291
2019-07-21T12:38:43,42.805,6.029,4330,1995,191.845,58.672,13.291
2019-07-21T12:41:43,42.805,6.029,4330,1995,191.913,58.695,13.292
2019-07-21T12:44:43,42.805,6.029,4330,1995,191.922,58.697,13.292
2019-07-21T12:47:43,42.805,6.029,4330,1995,191.977,58.714,13.291
2019-07-21T12:50:43,42.805,6.029,4330,1995,191.973,58.713,13.292
2019-07-21T12:53:43,42.805,6.029,4330,1995,191.985,58.716,13.292
2019-07-21T12:56:43,42.805,6.029,4330,1995,191.950,58.706,13.292
2019-07-21T12:59:43,42.805,6.029,4330,1995,191.984,58.716,13.292
2019-07-21T13:02:43,42.805,6.029,4330,1995,192.005,58.723,13.292
2019-07-21T13:05:43,42.805,6.029,4330,1995,192.194,58.780,13.291
2019-07-21T13:08:43,42.805,6.029,4330,1995,192.050,58.736,13.292
2019-07-21T13:11:43,42.805,6.029,4330,1995,191.961,58.712,13.294
2019-07-21T13:14:43,42.805,6.029,4330,1995,191.950,58.706,13.292
2019-07-21T13:17:43,42.805,6.029,4330,1995,192.117,58.758,13.293
2019-07-21T13:20:43,42.805,6.029,4330,1995,191.995,58.720,13.292
2019-07-21T13:23:43,42.805,6.029,4330,1995,191.900,58.691,13.292
2019-07-21T13:26:43,42.805,6.029,4330,1995,192.028,58.731,13.293
2019-07-21T13:29:43,42.805,6.029,4330,1995,192.011,58.726,13.293
2019-07-21T13:32:43,42.805,6.029,4330,1995,191.988,58.719,13.293
2019-07-21T13:35:43,42.805,6.029,4330,1995,192.075,58.747,13.294
2019-07-21T13:38:43,42.805,6.029,4330,1995,191.996,58.721,13.292
2019-07-21T13:41:43,42.805,6.029,4330,1995,191.986,58.718,13.292
2019-07-21T13:44:43,42.805,6.029,4330,1995,192.078,58.747,13.294
2019-07-21T13:47:42,42.805,6.029,4330,1995,192.111,58.758,13.294
2019-07-21T13:50:42,42.805,6.029,4330,1995,192.147,58.769,13.294
2019-07-21T13:53:42,42.805,6.029,4330,1995,192.155,58.770,13.293
2019-07-21T13:56:42,42.805,6.029,4330,1995,192.143,58.767,13.293
2019-07-21T13:59:42,42.805,6.029,4330,1995,192.084,58.749,13.294
2019-07-21T14:02:42,42.805,6.029,4330,1995,191.985,58.718,13.293
2019-07-21T14:05:42,42.805,6.029,4330,1995,192.032,58.732,13.293
2019-07-21T14:08:42,42.805,6.029,4330,1995,192.076,58.747,13.294
2019-07-21T14:11:42,42.805,6.029,4330,1995,192.155,58.769,13.292
2019-07-21T14:14:42,42.805,6.029,4330,1995,192.036,58.733,13.292
2019-07-21T14:17:42,42.805,6.029,4330,1995,192.053,58.739,13.293
2019-07-21T14:20:42,42.805,6.029,4330,1995,192.029,58.730,13.292
2019-07-21T14:23:42,42.805,6.029,4330,1995,192.040,58.735,13.293
2019-07-21T14:26:42,42.805,6.029,4330,1995,192.026,58.731,13.293
2019-07-21T14:29:42,42.805,6.029,4330,1995,192.138,58.762,13.291
2019-07-21T14:32:42,42.805,6.029,4330,1995,192.079,58.745,13.292
2019-07-21T14:35:42,42.805,6.029,4330,1995,192.106,58.754,13.292
2019-07-21T14:38:42,42.805,6.029,4330,1995,192.117,58.757,13.292
2019-07-21T14:41:42,42.805,6.029,4330,1995,192.151,58.766,13.290
2019-07-21T14:44:42,42.805,6.029,4330,1995,192.147,58.766,13.292
2019-07-21T14:47:42,42.805,6.029,4330,1995,192.197,58.780,13.291
2019-07-21T14:50:42,42.805,6.029,4330,1995,192.100,58.753,13.292
2019-07-21T14:56:42,42.805,6.029,4330,1995,192.079,58.741,13.288
2019-07-21T14:59:42,42.805,6.029,4330,1995,192.067,58.743,13.293
2019-07-21T15:02:42,42.805,6.029,4330,1995,192.002,58.722,13.292
2019-07-21T15:05:42,42.805,6.029,4330,1995,192.032,58.732,13.293
2019-07-21T15:08:42,42.805,6.029,4330,1995,192.117,58.758,13.292
2019-07-21T15:11:42,42.805,6.029,4330,1995,192.094,58.751,13.293
2019-07-21T15:14:42,42.805,6.029,4330,1995,192.105,58.757,13.294
2019-07-21T15:17:42,42.805,6.029,4330,1995,192.155,58.770,13.292
2019-07-21T15:20:42,42.805,6.029,4330,1995,192.130,58.762,13.293
2019-07-21T15:23:42,42.805,6.029,4330,1995,192.123,58.760,13.293
2019-07-21T15:26:42,42.805,6.029,4330,1995,192.134,58.762,13.292
2019-07-21T15:29:42,42.805,6.029,4330,1995,192.147,58.767,13.293
2019-07-21T15:32:42,42.805,6.029,4330,1995,192.157,58.769,13.291
2019-07-21T15:35:42,42.805,6.029,4330,1995,192.168,58.772,13.292
2019-07-21T15:38:42,42.805,6.029,4330,1995,192.185,58.777,13.291
2019-07-21T15:41:42,42.805,6.029,4330,1995,192.102,58.752,13.291
2019-07-21T15:44:42,42.805,6.029,4330,1995,192.130,58.759,13.291
2019-07-21T15:47:42,42.805,6.029,4330,1995,192.038,58.733,13.292
2019-07-21T15:50:42,42.805,6.029,4330,1995,192.038,58.732,13.291
2019-07-21T15:53:42,42.805,6.029,4330,1995,192.144,58.763,13.290
2019-07-21T15:56:42,42.805,6.029,4330,1995,192.161,58.769,13.290
2019-07-21T15:59:42,42.805,6.029,4330,1995,192.178,58.774,13.291
2019-07-21T16:02:42,42.805,6.029,4330,1995,192.176,58.773,13.290
2019-07-21T16:05:42,42.805,6.029,4330,1995,192.203,58.781,13.290
2019-07-21T16:08:42,42.805,6.029,4330,1995,192.280,58.805,13.290
2019-07-21T16:11:42,42.805,6.029,4330,1995,192.331,58.820,13.290
2019-07-21T16:14:42,42.805,6.029,4330,1995,192.323,58.817,13.289
2019-07-21T16:17:42,42.805,6.029,4330,1995,192.248,58.794,13.290
2019-07-21T16:20:42,42.805,6.029,4330,1995,192.243,58.793,13.290
2019-07-21T16:23:42,42.805,6.029,4330,1995,192.297,58.811,13.291
2019-07-21T16:26:42,42.805,6.029,4330,1995,192.185,58.775,13.290
2019-07-21T16:29:42,42.805,6.029,4330,1995,192.348,58.826,13.291
2019-07-21T16:32:42,42.805,6.029,4330,1995,192.463,58.860,13.290
2019-07-21T16:35:42,42.805,6.029,4330,1995,192.365,58.832,13.291
2019-07-21T16:38:42,42.805,6.029,4330,1995,192.365,58.831,13.290
2019-07-21T16:41:42,42.805,6.029,4330,1995,192.375,58.835,13.291
2019-07-21T16:44:42,42.805,6.029,4330,1995,192.324,58.818,13.290
2019-07-21T16:47:42,42.805,6.029,4330,1995,192.314,58.816,13.291
2019-07-21T16:50:42,42.805,6.029,4330,1995,192.397,58.843,13.292
2019-07-21T16:53:42,42.805,6.029,4330,1995,192.408,58.845,13.291
2019-07-21T16:56:42,42.805,6.029,4330,1995,192.396,58.840,13.290
2019-07-21T16:59:42,42.805,6.029,4330,1995,192.331,58.821,13.290
2019-07-21T17:02:42,42.805,6.029,4330,1995,192.361,58.831,13.291
2019-07-21T17:05:42,42.805,6.029,4330,1995,192.346,58.825,13.291
2019-07-21T17:08:42,42.805,6.029,4330,1995,192.421,58.851,13.292
2019-07-21T17:11:42,42.805,6.029,4330,1995,192.357,58.830,13.292
2019-07-21T17:14:42,42.805,6.029,4330,1995,192.420,58.849,13.291
2019-07-21T17:17:42,42.805,6.029,4330,1995,192.525,58.880,13.290
2019-07-21T17:20:42,42.805,6.029,4330,1995,192.549,58.890,13.293
2019-07-21T17:23:42,42.805,6.029,4330,1995,192.449,58.857,13.290
2019-07-21T17:32:42,42.805,6.029,4330,1995,192.499,58.868,13.288
2019-07-21T17:35:42,42.805,6.029,4330,1995,192.571,58.894,13.290
2019-07-21T17:38:42,42.805,6.029,4330,1995,192.594,58.901,13.290
2019-07-21T17:41:42,42.805,6.029,4330,1995,192.598,58.902,13.290
2019-07-21T17:44:42,42.805,6.029,4330,1995,192.611,58.905,13.290
2019-07-21T17:47:42,42.805,6.029,4330,1995,192.609,58.906,13.291
2019-07-21T17:50:42,42.805,6.029,4330,1995,192.564,58.892,13.291
2019-07-21T17:53:42,42.805,6.029,4330,1995,192.619,58.909,13.291
2019-07-21T17:56:42,42.805,6.029,4330,1995,192.632,58.913,13.291
2019-07-21T17:59:42,42.805,6.029,4330,1995,192.647,58.919,13.292
2019-07-21T18:02:42,42.805,6.029,4330,1995,192.633,58.915,13.292
2019-07-21T18:05:42,42.805,6.029,4330,1995,192.600,58.903,13.291
2019-07-21T18:08:42,42.805,6.029,4330,1995,192.555,58.890,13.291
2019-07-21T18:11:42,42.805,6.029,4330,1995,192.561,58.892,13.291
2019-07-21T18:14:42,42.805,6.029,4330,1995,192.573,58.896,13.291
2019-07-21T18:17:42,42.805,6.029,4330,1995,192.579,58.897,13.291
2019-07-21T18:20:42,42.805,6.029,4330,1995,192.511,58.877,13.291
2019-07-21T18:23:42,42.805,6.029,4330,1995,192.574,58.897,13.292
2019-07-21T18:26:42,42.805,6.029,4330,1995,192.517,58.880,13.292
2019-07-21T18:29:42,42.805,6.029,4330,1995,192.370,58.835,13.292
2019-07-21T18:32:42,42.805,6.029,4330,1995,192.500,58.874,13.291
2019-07-21T18:35:42,42.805,6.029,4330,1995,192.460,58.860,13.291
2019-07-21T18:38:42,42.805,6.029,4330,1995,192.410,58.849,13.293